EW9530 Weather Reports


Display with metric or nautical units.
time (UTC)temp
F
wind
direction
speed
MPH
gust
MPH
rain 1hr
in
rain 24hr
in
rain mn
in
humidity
%
barometer
mb
20260505051652 48 349 3.0 6.0 0.00 0.12 0.00 95 1014.1
20260505050151 47 14 4.0 6.0 0.00 0.12 0.00 94 1014.1
20260505041652 47 48 0.0 3.0 0.00 0.12 0.00 94 1014.2
20260505040149 47 48 0.0 1.0 0.00 0.12 0.00 94 1014.1
20260505034651 47 42 1.0 5.0 0.00 0.12 0.00 94 1013.9
20260505033158 49 17 0.0 4.0 0.00 0.12 0.00 94 1013.9
20260505031654 50 11 1.0 6.0 0.00 0.12 0.00 94 1013.8
20260505024651 51 317 2.0 6.0 0.00 0.12 0.00 94 1014.0
20260505023156 51 320 2.0 5.0 0.00 0.12 0.00 94 1014.0
20260505021652 50 320 4.0 8.0 0.00 0.12 0.00 94 1014.0
20260505014651 49 24 2.0 5.0 0.00 0.12 0.00 94 1013.9
20260505013139 50 18 2.0 5.0 0.00 0.12 0.00 94 1013.9
20260505011653 49 19 2.0 5.0 0.00 0.12 0.00 94 1014.0
20260505010023 49 47 2.0 3.0 0.00 0.12 0.00 94 1014.1
20260505004653 50 55 1.0 3.0 0.00 0.12 0.00 94 1014.2
20260505003139 50 67 1.0 4.0 0.00 0.12 0.00 94 1014.1
20260505001652 50 29 0.0 3.0 0.00 0.12 0.00 94 1014.2
20260504234652 51 26 0.0 3.0 0.00 0.12 0.00 94 1014.0
20260504233140 51 5 1.0 4.0 0.00 0.12 0.00 94 1014.0
20260504231651 51 40 0.0 0.0 0.00 0.12 0.00 93 1014.0
20260504230149 52 32 0.0 0.0 0.00 0.12 0.00 93 1013.9
20260504224650 53 74 0.0 0.0 0.00 0.12 0.00 93 1013.7
20260504223157 53 74 0.0 0.0 0.00 0.12 0.00 93 1013.6
20260504221654 53 74 0.0 2.0 0.00 0.12 0.00 93 1013.4
20260504220150 54 74 0.0 0.0 0.00 0.12 0.00 93 1013.3
20260504214652 54 74 0.0 1.0 0.00 0.12 0.12 92 1013.3
20260504213149 55 35 0.0 0.0 0.00 0.12 0.12 92 1013.2
20260504211649 55 35 0.0 3.0 0.00 0.12 0.12 92 1013.2
20260504204650 56 360 0.0 0.0 0.01 0.12 0.12 91 1013.4
20260504203138 57 360 0.0 1.0 0.02 0.12 0.12 90 1013.5
20260504201652 57 350 0.0 0.0 0.02 0.12 0.12 89 1013.7
20260504194652 58 44 4.0 11.0 0.06 0.11 0.11 85 1013.5
20260504193155 59 22 0.0 8.0 0.05 0.10 0.10 82 1013.2
20260504191651 61 271 6.0 17.0 0.05 0.10 0.10 75 1012.9
20260504190146 61 254 5.0 25.0 0.04 0.09 0.09 78 1012.7
20260504184650 63 140 0.0 1.0 0.00 0.06 0.06 87 1012.1
20260504183136 63 140 0.0 5.0 0.00 0.06 0.06 85 1012.0
20260504181651 62 163 0.0 2.0 0.00 0.06 0.06 88 1011.7
20260504180149 63 18 0.0 4.0 0.00 0.06 0.06 87 1011.5
20260504174651 63 37 0.0 2.0 0.00 0.06 0.06 86 1011.4
20260504173156 64 155 0.0 1.0 0.00 0.06 0.06 84 1011.5
20260504171650 64 155 0.0 0.0 0.00 0.06 0.06 82 1011.8
20260504160147 65 107 0.0 6.0 0.00 0.06 0.06 84 1012.0
20260504140149 60 119 0.0 4.0 0.05 0.05 0.05 86 1013.0
20260504100149 68 360 0.0 5.0 0.00 0.00 0.00 67 1013.2
20260504081652 63 15 0.0 4.0 0.00 0.00 0.00 81 1014.2
20260504080148 62 28 1.0 5.0 0.00 0.00 0.00 83 1014.3
20260504060147 58 355 1.0 6.0 0.00 0.00 0.00 89 1014.5